[Iaude] MPEC D62: 2024 DP [a=1.35,e=0.29,i=8.5,H=25.3]
    mpec at cfa.harvard.edu 
    mpec at cfa.harvard.edu
       
    Mon Feb 19 05:18:01 EST 2024
    
    
  
M.P.E.C. 2024-D62                             Issued 2024 February 19, 10:16 UT
     The Minor Planet Electronic Circulars contain information on unusual
         minor planets, routine data on comets and natural satellites,
         and occasional editorial announcements.  They are published
    on behalf of Division F of the International Astronomical Union by the
          Minor Planet Center, Smithsonian Astrophysical Observatory,
                          Cambridge, MA 02138, U.S.A.
			  
             Prepared using the Tamkin Foundation Computer Network
                              MPC at CFA.HARVARD.EDU
            URL https://www.minorplanetcenter.net/    ISSN 1523-6714
                                    2024 DP                                     
Observations:
     K24D00P*1C2024 02 17.44774315 13 14.988+35 23 18.46         20.29GVED062G96
     K24D00P 1C2024 02 17.45289415 13 12.544+35 23 32.32         20.26GVED062G96
     K24D00P 1C2024 02 17.45804715 13 10.103+35 23 46.46         20.11GVED062G96
     K24D00P 1C2024 02 17.46319715 13 07.583+35 24 00.22               VED062G96
     K24D00P  C2024 02 17.50633015 12 45.830+35 25 46.72         20.6 GVED062H01
     K24D00P  C2024 02 17.51286915 12 42.678+35 26 02.62         20.8 GVED062H01
     K24D00P KC2024 02 17.52188515 12 39.236+35 26 29.76         21.80GVED062I52
     K24D00P KC2024 02 17.52459915 12 37.955+35 26 35.70         20.79GVED062I52
     K24D00P KC2024 02 17.52730515 12 36.598+35 26 42.25         21.52GVED062I52
     K24D00P KB2024 02 18.41551 15 07 14.981+35 58 02.71         21.4 VZED062H36
     K24D00P KB2024 02 18.43860 15 07 05.230+35 58 52.43         21.4 VZED062H36
     K24D00P KB2024 02 18.46142 15 06 55.642+35 59 39.66         20.9 VZED062H36
     K24D00P KC2024 02 18.46482915 06 57.758+36 00 01.98         20.78GVED062I52
     K24D00P KC2024 02 18.46842515 06 56.239+36 00 09.79         20.75GVED062I52
     K24D00P KC2024 02 18.47202615 06 54.702+36 00 17.71         20.47GVED062I52
     K24D00P KC2024 02 18.47561515 06 53.183+36 00 25.24         20.44GVED062I52
     K24D00P KC2024 02 19.39874015 01 55.63 +36 27 23.2          20.5 GVED062H21
     K24D00P KC2024 02 19.40156015 01 54.59 +36 27 28.3          20.6 GVED062H21
     K24D00P KC2024 02 19.40437915 01 53.54 +36 27 33.4          20.6 GVED062H21
Observer details:
G96 Mt. Lemmon Survey.  Observers T. Beuden, J. K. Hogan.  Measurers T.
    Beuden, V. F. Carvajal, D. Fay, J. B. Fazekas, D. C. Fuls, A. R. Gibbs, A.
    D. Grauer, H. Groeller, J. K. Hogan, R. A. Kowalski, S. M. Larson, G. J.
    Leonard, D. Rankin, R. L. Seaman, F. C. Shelly, K. W. Wierzchos.  1.5-m
    reflector + 10K CCD.
H01 Magdalena Ridge Observatory, Socorro.  Observers W. H. Ryan, E. V. Ryan.
    Measurer W. H. Ryan.  2.4-m f/8.9 Ritchey-Chretien + CCD.
H21 Astronomical Research Observatory, Westfield.  Observer R. Holmes.
    Measurers T. Linder, R. Holmes, L. Horn.  0.76-m f/3.0 astrograph + CCD.
H36 Sandlot Observatory, Scranton.  Observer G. Hug.  0.56-m f/4.8 reflector +
    CMO.
I52 Steward Observatory, Mt. Lemmon Station.  Observer J. B. Fazekas.
    Measurers E. C. Beshore, D. Fay, J. B. Fazekas, D. C. Fuls, A. R. Gibbs,
    A. D. Grauer, H. Groeller, J. K. Hogan, R. A. Kowalski, S. M. Larson, G.
    J. Leonard, D. Rankin, R. L. Seaman, F. C. Shelly, K. W. Wierzchos.  1.0-m
    prime focus + CCD.
Orbital elements:
2024 DP                                                  Earth MOID = 0.0092 AU
Epoch 2024 Mar. 31.0 TT = JDT 2460400.5                 MPC                     
M  46.54355              (2000.0)            P               Q                  
n   0.62697507     Peri.  335.61219     -0.38636900     -0.91681284             
a   1.3519767      Node   136.92461     +0.86863941     -0.39846005             
e   0.2934431      Incl.    8.49274     +0.31013638     -0.02614963             
P   1.57           H   25.36          G   0.15           U   8                  
Residuals in seconds of arc
240217 G96  0.2-  0.0     240217 I52  0.4+  0.4-    240218 I52  0.1-  0.2+
240217 G96  0.0   0.2-    240217 I52  0.2-  0.3-    240218 I52  0.1-  0.0
240217 G96  0.3+  0.0     240218 H36  1.0+  0.1+    240219 H21  0.1-  0.0
240217 G96  0.3-  0.1-    240218 H36  0.2+  0.3-    240219 H21  0.0   0.0
240217 H01  0.1-  0.1-    240218 H36  0.5+  0.5-    240219 H21  0.0   0.0
240217 H01  0.0   0.0     240218 I52  0.0   0.0
240217 I52  0.0   0.2+    240218 I52  0.0   0.0
Ephemeris:
2024 DP                  a,e,i = 1.35, 0.29, 8                   q = 0.9552
Date    TT    R. A. (2000) Decl.     Delta      r    Elong.  Phase     V
2024 01 20    01 03 21.4 -42 34 35   0.07098 0.9564    65.3   110.9    23.7
...
2024 02 04    22 11 43.2 -38 01 52   0.01651 0.9708    25.8   153.8    25.6
...
2024 02 12    16 14 32.0 +27 30 15   0.02200 0.9868    88.8    89.9    20.2
...
2024 02 18    15 09 37.4 +35 44 09   0.04327 1.0021   107.6    70.0    21.0
2024 02 19    15 03 55.8 +36 16 24   0.04695 1.0049   109.4    68.1    21.1
2024 02 20    14 58 55.7 +36 43 03   0.05063 1.0078   111.0    66.3    21.2
...
2024 02 26    14 37 33.1 +38 15 49   0.07282 1.0263   118.2    58.2    21.8
...
2024 03 05    14 18 42.1 +38 55 53   0.1025  1.0541   125.1    50.3    22.4
...
2024 03 20    13 50 09.2 +37 56 43   0.1603  1.1137   134.3    39.8    23.2
A. U. Tomatic                (C) Copyright 2024 MPC           M.P.E.C. 2024-D62
    
    
More information about the Iaude
mailing list